This demonstration page uses our WeatherBlox Daily Observations layout. Learn more.

Left ArrowRight Arrow

36.17497, -115.13722

Hourly Observations for September 6, 2017

Temp ( °F °C ) Dew Point ( °F °C ) Humidity (%) Winds ( mph kmh ) Pressure ( in mb ) Visibility ( mi km ) Precip ( " mm )
12:53 am 00:53 Clear 89 31.7 52 11.1 28 28 NNE 5 7 29.91 1013 10 16 0.00 0.00
1:53 am 01:53 Clear 88 31.1 51 10.6 28 28 NNW 5 7 29.89 1012 10 16 0.00 0.00
2:53 am 02:53 Clear 85 29.4 55 12.8 36 36 SSW 5 7 29.91 1013 10 16 0.00 0.00
3:53 am 03:53 Clear 85 29.4 54 12.2 35 35 Calm 29.91 1013 10 16 0.00 0.00
4:53 am 04:53 Clear 85 29.4 53 11.7 33 33 N 6 9 29.92 1013 10 16 0.00 0.00
5:53 am 05:53 Clear 84 28.9 54 12.2 36 36 NW 3 6 29.93 1013 10 16 0.00 0.00
6:53 am 06:53 Sunny 84 28.9 54 12.2 36 36 W 5 7 29.94 1014 10 16 0.00 0.00
7:53 am 07:53 Sunny 85 29.4 55 12.8 36 36 NNE 3 6 29.95 1014 10 16 0.00 0.00
8:53 am 08:53 Sunny 86 30 53 11.7 32 32 NNE 5 7 29.97 1015 10 16 0.00 0.00
9:53 am 09:53 Sunny 87 30.6 52 11.1 30 30 Calm 29.98 1015 10 16 0.00 0.00
10:53 am 10:53 Sunny 88 31.1 52 11.1 29 29 Calm 29.98 1015 10 16 0.00 0.00
11:53 am 11:53 Sunny 90 32.2 51 10.6 26 26 NNE 5 7 29.96 1015 10 16 0.00 0.00
12:53 pm 12:53 Sunny 93 33.9 50 10 23 23 SSE 3 6 29.94 1014 10 16 0.00 0.00
1:53 pm 13:53 Sunny 97 36.1 48 8.9 19 19 Calm 29.91 1013 10 16 0.00 0.00
2:53 pm 14:53 Sunny 98 36.7 47 8.3 17 17 ENE 6 9 29.87 1012 10 16 0.00 0.00
3:53 pm 15:53 Sunny 98 36.7 47 8.3 17 17 WSW 3 6 29.85 1011 10 16 0.00 0.00
4:53 pm 16:53 Sunny 100 37.8 47 8.3 16 16 NNE 3 6 29.83 1010 10 16 0.00 0.00
5:53 pm 17:53 Sunny 98 36.7 46 7.8 17 17 W 5 7 29.83 1010 10 16 0.00 0.00
6:53 pm 18:53 Sunny 98 36.7 47 8.3 17 17 S 6 9 29.83 1010 10 16 0.00 0.00
7:53 pm 19:53 Clear 95 35 47 8.3 19 19 SW 13 20 29.85 1011 10 16 0.00 0.00
8:53 pm 20:53 Clear 94 34.4 45 7.2 18 18 WSW 9 15 29.87 1012 10 16 0.00 0.00
9:53 pm 21:53 Partly Cloudy 93 33.9 45 7.2 19 19 S 10 17 29.88 1012 10 16 0.00 0.00
10:53 pm 22:53 Mostly Clear 90 32.2 49 9.4 24 24 SSW 13 20 29.90 1013 10 16 0.00 0.00
11:53 pm 23:53 Mostly Clear 90 32.2 48 8.9 24 24 NNW 10 17 29.87 1012 10 16 0.00 0.03

Powered by AerisWeather